Regional Weather Roundup
Issued by NWS

Home | Current Version | Previous Version | Graphics & Text | Print | Product List | Glossary On
Versions: 1 2 3 4 5 6 7 8 9 10 11 12 13 14 15 16 17 18 19 20 21 22 23 24 25 26 27 28 29 30 31 32 33 34 35 36 37 38 39 40 41 42 43 44 45 46 47 48 49 50
000
ASUS43 KFSD 201310
RWRSD

WEATHER ROUNDUP FOR SOUTH DAKOTA
NATIONAL WEATHER SERVICE SIOUX FALLS SD
700 AM CST MON NOV 20 2017

NOTE: "FAIR" INDICATES FEW OR NO CLOUDS BELOW 12,000 FEET WITH NO
SIGNIFICANT WEATHER AND/OR OBSTRUCTIONS TO VISIBILITY.


SDZ001>005-009-010-012>017-201400-
NORTHWEST AND NORTH CENTRAL SOUTH DAKOTA

CITY           SKY/WX    TMP DP  RH WIND       PRES   REMARKS
BUFFALO          N/A     39  15  37 SW14      29.46F
FAITH            N/A     38  18  44 W8        29.53F
MOBRIDGE       CLOUDY    28  23  81 SE8       29.49F WCI  20
$$

SDZ012>016-024>037-041>051-057-063-072>074-201400-
SOUTHWEST AND SOUTH CENTRAL SOUTH DAKOTA

CITY           SKY/WX    TMP DP  RH WIND       PRES   REMARKS
RAPID CTY ARPT CLOUDY    34  16  47 CALM      29.58S
PIERRE         CLOUDY    31  22  69 W7        29.56R WCI  24
CUSTER         CLOUDY    38   7  27 W12G20    29.67F
ELLSWORTH AFB  CLOUDY    42  12  29 SW9       29.56F
PHILIP         CLOUDY    33  20  58 SW3       29.57F
PINE RIDGE     CLOUDY    38  15  39 W12       29.67F
SPEARFISH      FAIR      50   9  18 SW20G26   29.56F
WINNER         FAIR      39  19  44 SW12      29.60S
$$

SDZ004>011-016>023-039-040-201400-
NORTHEAST SOUTH DAKOTA

CITY           SKY/WX    TMP DP  RH WIND       PRES   REMARKS
ABERDEEN       CLOUDY    24  22  91 S8        29.53F WCI  15
WATERTOWN      CLOUDY    28  23  81 S9        29.54F WCI  19
BROOKINGS      CLOUDY    27  22  81 SE7       29.58F WCI  19
SISSETON         N/A     29  23  78 S7        29.51F WCI  22
$$

SDZ017-020-022-023-036>040-048>070-201400-
SOUTHEAST SOUTH DAKOTA

CITY           SKY/WX    TMP DP  RH WIND       PRES   REMARKS
SIOUX FALLS    CLOUDY    32  24  72 S6        29.61F WCI  26
HURON          CLOUDY    25  21  85 S6        29.56F WCI  18
CHAMBERLAIN    PTCLDY    31  22  71 CALM      29.58F
MITCHELL       CLOUDY    24  20  84 S5        29.59F WCI  18
YANKTON        CLOUDY    33  23  66 S3        29.62F
$$

ABBREVIATIONS USED IN REMARKS
   TC - TEMPERATURE IN CELSIUS
  WCI - WIND CHILL INDEX
   HX - HEAT INDEX
  VSB - VISIBILITY





USA.gov is the U.S. government's official web portal to all federal, state and local government web resources and services.